Time,TemperatureF,DewpointF,PressureIn,WindDirection,WindDirectionDegrees,WindSpeedMPH,WindSpeedGustMPH,Humidity,HourlyPrecipIn,Conditions,Clouds,dailyrainin,SoftwareType,DateUTC
2013-04-12 00:10:00,52.6,52.0,29.51,NW,304,0.0,5.0,96,0.01,,,0.90,weatherlink.com 1.10,2013-04-12 04:10:00,
2013-04-12 00:25:00,52.1,51.0,29.52,NW,318,2.0,5.0,96,0.02,,,0.01,weatherlink.com 1.10,2013-04-12 04:25:00,
2013-04-12 00:40:00,51.4,50.0,29.53,SE,144,1.0,8.0,96,0.04,,,0.03,weatherlink.com 1.10,2013-04-12 04:40:00,
2013-04-12 00:55:00,50.7,50.0,29.52,NNE,17,1.0,7.0,96,0.05,,,0.05,weatherlink.com 1.10,2013-04-12 04:55:00,
2013-04-12 01:10:00,50.4,49.0,29.52,NNW,338,2.0,9.0,96,0.05,,,0.05,weatherlink.com 1.10,2013-04-12 05:10:00,
2013-04-12 01:25:00,50.5,49.0,29.52,SW,233,2.0,6.0,96,0.05,,,0.06,weatherlink.com 1.10,2013-04-12 05:25:00,
2013-04-12 01:40:00,49.0,48.0,29.53,WSW,255,4.0,12.0,95,0.04,,,0.07,weatherlink.com 1.10,2013-04-12 05:40:00,
2013-04-12 01:55:00,48.5,47.0,29.53,West,271,0.0,8.0,95,0.03,,,0.08,weatherlink.com 1.10,2013-04-12 05:55:00,
2013-04-12 02:11:00,47.6,46.0,29.55,West,275,3.0,10.0,95,0.03,,,0.08,weatherlink.com 1.10,2013-04-12 06:11:00,
2013-04-12 02:26:00,46.3,44.0,29.55,NNE,17,7.0,13.0,93,0.02,,,0.09,weatherlink.com 1.10,2013-04-12 06:26:00,
2013-04-12 03:26:00,43.9,41.0,29.55,West,269,5.0,10.0,90,0.02,,,0.11,weatherlink.com 1.10,2013-04-12 07:26:00,
2013-04-12 03:41:00,43.5,41.0,29.56,West,278,1.0,12.0,89,0.01,,,0.11,weatherlink.com 1.10,2013-04-12 07:41:00,
2013-04-12 03:56:00,43.1,40.0,29.55,NNW,338,2.0,8.0,90,0.00,,,0.11,weatherlink.com 1.10,2013-04-12 07:56:00,
2013-04-12 04:11:00,42.5,40.0,29.55,WSW,249,3.0,12.0,91,0.00,,,0.11,weatherlink.com 1.10,2013-04-12 08:11:00,
2013-04-12 04:26:00,41.5,38.0,29.56,NNW,340,2.0,14.0,88,0.00,,,0.11,weatherlink.com 1.10,2013-04-12 08:26:00,
2013-04-12 04:41:00,41.1,38.0,29.57,WNW,302,2.0,10.0,87,0.00,,,0.11,weatherlink.com 1.10,2013-04-12 08:41:00,
2013-04-12 04:56:00,40.8,37.0,29.57,NW,305,4.0,13.0,87,0.00,,,0.11,weatherlink.com 1.10,2013-04-12 08:56:00,
2013-04-12 05:11:00,40.4,36.0,29.58,NW,309,6.0,13.0,84,0.00,,,0.11,weatherlink.com 1.10,2013-04-12 09:11:00,
2013-04-12 05:26:00,40.3,36.0,29.59,NE,52,5.0,13.0,83,0.00,,,0.11,weatherlink.com 1.10,2013-04-12 09:26:00,
2013-04-12 05:56:00,40.0,36.0,29.60,WNW,301,2.0,7.0,84,0.00,,,0.11,weatherlink.com 1.10,2013-04-12 09:56:00,
2013-04-12 06:10:00,40.0,36.0,29.60,West,276,2.0,10.0,85,0.00,,,0.11,weatherlink.com 1.10,2013-04-12 10:10:00,
2013-04-12 06:26:00,40.0,36.0,29.61,West,278,4.0,12.0,85,0.00,,,0.11,weatherlink.com 1.10,2013-04-12 10:26:00,
2013-04-12 06:41:00,39.8,35.0,29.61,SW,225,3.0,8.0,83,0.00,,,0.11,weatherlink.com 1.10,2013-04-12 10:41:00,
2013-04-12 06:56:00,39.6,35.0,29.61,NW,318,2.0,7.0,83,0.00,,,0.11,weatherlink.com 1.10,2013-04-12 10:56:00,
2013-04-12 07:11:00,39.5,35.0,29.62,WSW,241,3.0,-999.0,84,-99.99,,,0.11,weatherlink.com 1.10,2013-04-12 11:11:00,
2013-04-12 07:27:00,39.1,35.0,29.63,NW,309,4.0,10.0,84,0.00,,,0.11,weatherlink.com 1.10,2013-04-12 11:27:00,
2013-04-12 07:42:00,38.9,34.0,29.64,SSE,162,4.0,14.0,83,0.00,,,0.11,weatherlink.com 1.10,2013-04-12 11:42:00,
2013-04-12 07:57:00,38.7,34.0,29.65,South,176,1.0,9.0,83,0.00,,,0.11,weatherlink.com 1.10,2013-04-12 11:57:00,
2013-04-12 08:12:00,38.4,33.0,29.65,NNW,337,0.0,7.0,82,0.00,,,0.11,weatherlink.com 1.10,2013-04-12 12:12:00,
2013-04-12 08:27:00,38.3,33.0,29.65,NNE,14,6.0,13.0,81,0.00,,,0.11,weatherlink.com 1.10,2013-04-12 12:27:00,
2013-04-12 08:42:00,38.3,33.0,29.66,WSW,250,8.0,11.0,80,0.00,,,0.11,weatherlink.com 1.10,2013-04-12 12:42:00,
2013-04-12 09:12:00,37.3,32.0,29.68,NE,37,5.0,11.0,82,0.00,,,0.11,weatherlink.com 1.10,2013-04-12 13:12:00,
2013-04-12 09:27:00,37.4,33.0,29.68,East,87,1.0,11.0,83,0.00,,,0.11,weatherlink.com 1.10,2013-04-12 13:27:00,
2013-04-12 09:42:00,37.8,33.0,29.68,ESE,117,4.0,7.0,83,0.00,,,0.11,weatherlink.com 1.10,2013-04-12 13:42:00,
2013-04-12 09:57:00,38.9,34.0,29.68,South,181,2.0,9.0,81,0.00,,,0.11,weatherlink.com 1.10,2013-04-12 13:57:00,
2013-04-12 10:12:00,39.8,34.0,29.68,NE,49,1.0,5.0,79,0.00,,,0.11,weatherlink.com 1.10,2013-04-12 14:12:00,
2013-04-12 10:27:00,39.9,33.0,29.68,WSW,252,2.0,10.0,77,0.00,,,0.11,weatherlink.com 1.10,2013-04-12 14:27:00,
2013-04-12 10:42:00,40.2,34.0,29.69,ENE,70,2.0,9.0,77,0.00,,,0.11,weatherlink.com 1.10,2013-04-12 14:42:00,
2013-04-12 10:57:00,41.1,34.0,29.69,WNW,282,4.0,10.0,76,0.00,,,0.11,weatherlink.com 1.10,2013-04-12 14:57:00,
2013-04-12 11:12:00,41.5,34.0,29.69,SE,145,2.0,15.0,74,0.00,,,0.11,weatherlink.com 1.10,2013-04-12 15:12:00,
2013-04-12 11:42:00,41.6,34.0,29.70,NNW,342,2.0,14.0,74,0.00,,,0.11,weatherlink.com 1.10,2013-04-12 15:42:00,
2013-04-12 11:57:00,41.5,33.0,29.70,East,79,4.0,10.0,72,0.00,,,0.11,weatherlink.com 1.10,2013-04-12 15:57:00,
2013-04-12 12:12:00,42.2,34.0,29.70,West,278,7.0,9.0,72,0.00,,,0.11,weatherlink.com 1.10,2013-04-12 16:12:00,
2013-04-12 12:27:00,42.6,34.0,29.71,West,264,10.0,11.0,71,0.00,,,0.11,weatherlink.com 1.10,2013-04-12 16:27:00,
2013-04-12 12:42:00,43.1,34.0,29.71,ESE,103,2.0,11.0,69,0.00,,,0.11,weatherlink.com 1.10,2013-04-12 16:42:00,
2013-04-12 12:57:00,43.8,34.0,29.71,SW,218,4.0,12.0,68,0.00,,,0.11,weatherlink.com 1.10,2013-04-12 16:57:00,
2013-04-12 13:12:00,43.9,33.0,29.71,NW,314,5.0,14.0,66,0.00,,,0.11,weatherlink.com 1.10,2013-04-12 17:12:00,
2013-04-12 13:27:00,44.6,34.0,29.71,NE,34,4.0,12.0,66,0.00,,,0.11,weatherlink.com 1.10,2013-04-12 17:27:00,
2013-04-12 13:57:00,43.7,34.0,29.72,SW,226,7.0,9.0,70,0.00,,,0.11,weatherlink.com 1.10,2013-04-12 17:57:00,
2013-04-12 15:28:00,43.1,34.0,29.76,West,273,6.0,10.0,69,0.00,,,0.11,weatherlink.com 1.10,2013-04-12 19:28:00,
2013-04-12 15:43:00,42.7,33.0,29.77,West,277,5.0,14.0,69,0.00,,,0.11,weatherlink.com 1.10,2013-04-12 19:43:00,
2013-04-12 15:58:00,42.5,33.0,29.77,West,259,4.0,13.0,70,0.00,,,0.11,weatherlink.com 1.10,2013-04-12 19:58:00,
2013-04-12 16:13:00,42.4,34.0,29.77,WNW,290,4.0,11.0,72,0.00,,,0.11,weatherlink.com 1.10,2013-04-12 20:13:00,
2013-04-12 16:28:00,42.6,34.0,29.78,South,183,2.0,11.0,72,0.00,,,0.11,weatherlink.com 1.10,2013-04-12 20:28:00,
2013-04-12 16:43:00,43.8,35.0,29.78,ESE,110,1.0,13.0,70,0.00,,,0.11,weatherlink.com 1.10,2013-04-12 20:43:00,
2013-04-12 16:58:00,44.8,36.0,29.78,SE,134,5.0,10.0,70,0.00,,,0.11,weatherlink.com 1.10,2013-04-12 20:58:00,
2013-04-12 17:13:00,44.7,35.0,29.78,SSE,167,3.0,11.0,69,0.00,,,0.11,weatherlink.com 1.10,2013-04-12 21:13:00,
2013-04-12 17:28:00,44.1,35.0,29.79,South,187,2.0,8.0,71,0.00,,,0.11,weatherlink.com 1.10,2013-04-12 21:28:00,
2013-04-12 17:43:00,43.6,34.0,29.80,NNE,13,2.0,13.0,70,0.00,,,0.11,weatherlink.com 1.10,2013-04-12 21:43:00,
2013-04-12 17:58:00,43.4,35.0,29.80,NNW,345,2.0,9.0,71,0.00,,,0.11,weatherlink.com 1.10,2013-04-12 21:58:00,
2013-04-12 18:13:00,43.2,34.0,29.81,ENE,66,2.0,12.0,71,0.00,,,0.11,weatherlink.com 1.10,2013-04-12 22:13:00,
2013-04-12 18:28:00,43.0,35.0,29.82,WSW,248,6.0,13.0,73,0.00,,,0.11,weatherlink.com 1.10,2013-04-12 22:28:00,
2013-04-12 18:42:00,43.0,35.0,29.82,WSW,257,7.0,9.0,73,0.00,,,0.11,weatherlink.com 1.10,2013-04-12 22:42:00,
2013-04-12 18:58:00,42.7,35.0,29.83,SW,214,0.0,11.0,75,0.00,,,0.11,weatherlink.com 1.10,2013-04-12 22:58:00,
2013-04-12 19:13:00,42.5,36.0,29.83,West,266,1.0,11.0,77,0.00,,,0.11,weatherlink.com 1.10,2013-04-12 23:13:00,
2013-04-12 19:28:00,42.4,36.0,29.83,WNW,297,5.0,12.0,77,0.00,,,0.11,weatherlink.com 1.10,2013-04-12 23:28:00,
2013-04-12 19:43:00,42.2,36.0,29.83,WNW,291,3.0,9.0,80,0.00,,,0.11,weatherlink.com 1.10,2013-04-12 23:43:00,
2013-04-12 19:58:00,42.0,37.0,29.84,ENE,68,2.0,10.0,81,0.00,,,0.11,weatherlink.com 1.10,2013-04-12 23:58:00,
2013-04-12 20:13:00,41.9,37.0,29.84,ENE,64,4.0,11.0,81,0.00,,,0.11,weatherlink.com 1.10,2013-04-13 00:13:00,
2013-04-12 20:28:00,42.1,37.0,29.84,NNW,343,2.0,8.0,81,0.00,,,0.11,weatherlink.com 1.10,2013-04-13 00:28:00,
2013-04-12 20:43:00,42.0,37.0,29.84,NE,51,2.0,8.0,81,0.00,,,0.11,weatherlink.com 1.10,2013-04-13 00:43:00,
2013-04-12 20:58:00,42.0,38.0,29.86,South,183,1.0,8.0,84,0.00,,,0.11,weatherlink.com 1.10,2013-04-13 00:58:00,
2013-04-12 21:13:00,41.0,37.0,29.86,NNW,339,2.0,9.0,87,0.00,,,0.11,weatherlink.com 1.10,2013-04-13 01:13:00,
2013-04-12 21:28:00,40.9,37.0,29.86,WSW,249,2.0,6.0,87,0.00,,,0.11,weatherlink.com 1.10,2013-04-13 01:28:00,
2013-04-12 21:43:00,41.0,37.0,29.87,NE,37,3.0,11.0,86,0.00,,,0.11,weatherlink.com 1.10,2013-04-13 01:43:00,
2013-04-12 21:57:00,41.1,37.0,29.87,West,260,1.0,9.0,85,0.00,,,0.11,weatherlink.com 1.10,2013-04-13 01:57:00,
2013-04-12 22:12:00,40.5,38.0,29.88,NW,317,1.0,4.0,89,0.00,,,0.11,weatherlink.com 1.10,2013-04-13 02:12:00,
2013-04-12 22:28:00,40.1,37.0,29.88,SSW,204,1.0,5.0,89,0.00,,,0.11,weatherlink.com 1.10,2013-04-13 02:28:00,
2013-04-12 22:43:00,40.0,37.0,29.88,SW,217,1.0,5.0,89,0.00,,,0.11,weatherlink.com 1.10,2013-04-13 02:43:00,
2013-04-12 22:58:00,40.0,37.0,29.89,West,269,0.0,5.0,87,0.00,,,0.11,weatherlink.com 1.10,2013-04-13 02:58:00,
2013-04-12 23:12:00,40.1,36.0,29.89,West,277,1.0,6.0,86,0.00,,,0.11,weatherlink.com 1.10,2013-04-13 03:12:00,
2013-04-12 23:28:00,40.2,36.0,29.89,SSW,201,1.0,7.0,86,0.00,,,0.11,weatherlink.com 1.10,2013-04-13 03:28:00,
2013-04-12 23:43:00,40.3,36.0,29.89,NW,316,1.0,8.0,84,0.00,,,0.11,weatherlink.com 1.10,2013-04-13 03:43:00,
2013-04-12 23:58:00,40.4,36.0,29.89,ESE,114,1.0,9.0,84,0.00,,,0.11,weatherlink.com 1.10,2013-04-13 03:58:00,